Weather in Fagaras

Romania     45°49′30″N   24°58′37″E
temp.,
°C
wind,
m/s
gust,
m/s
humid.,
%
clouds,
%
prec.,
mm/h
press.,
hPa
HPBL,
m
20 april, tue
tue2000:00+5ssw1189100 0.9 101337
03:00+4wsw2290100 1.0 101270
06:00+4w3597100 0.8 1012328
09:00+4w4598100 1.7 1013715
12:00+5sw2496100 2.4 1014262
15:00+7wnw238199 2.9 1013444
18:00+8wnw357699 1.3 1012794
21:00+5wsw3493100 2.3 101573
21 april, wed
wed2100:00+6wsw238799 0.3 1015106
03:00+5sw358589 0.4 1015133
06:00+5wsw248389 0.1 1016109
09:00+8wnw357144 0.3 1016748
12:00+10wnw456327 0.4 10161383
15:00+11wnw556097 1.4 10161525
18:00+11w456745 1.0 10161092
21:00+6sw338125 1.3 101842
22 april, thu
thu2200:00+5ssw22795 0.0 101916
03:00+5ssw32775 0.0 101916
06:00+5ssw22775 0.0 101914
09:00+9nw12624 0.0 1019323
12:00+13nw345237 0.0 10191624
15:00+14wnw2248100 0.6 10181623
18:00+13sw115566 1.3 10171115
21:00+8s32745 1.8 101820
23 april, fri
fri2300:00+7s327230 0.1 101818
03:00+6s227391 0.1 101715
06:00+6s22756 0.0 101618
09:00+8wnw357599 0.1 1018304
12:00+7w5794100 2.3 1019674
15:00+5w3594100 6.1 1021535
18:00+5nw239192 1.8 1022471
21:00+5sw238886 1.8 1023103
24 april, sat
sat2400:00+4sw228087 0.0 102425
03:00+4sw227984 0.1 102415
06:00+3sw227874 0.0 102414
09:00+5wnw21756 0.0 1025481
12:00+9nnw225618 0.0 10241381
15:00+11n335054 0.1 10221425
18:00+11nw225284 0.1 10211398
21:00+7ssw227068 0.2 102215